Location: Ripley
(48.3812°N, 115.4473°W)
Time: 21:23:11
(UTC+00:00)

O/OREOS (USA 219) - Pass Details

Date: 01 July 2022
Orbit: 621 x 646 km, 72.0° (Epoch: 22 May)

Event Time Altitude Azimuth Distance (km) Brightness Sun altitude
Rises 07:11:52 0° 338° (NNW) 2,964 ? -18.1°
Reaches altitude 10° 07:14:18 10° 347° (NNW) 2,052 ? -18.2°
Maximum altitude 07:18:36 38° 56° (NE) 997 ? -18.3°
Enters shadow 07:21:37 18° 116° (ESE) 1,603 ? -18.3°
